Ellensburg, WA

2:00 PM PDT on May 23, 2018 (GMT -0700)
Bowers

Weather History for KELN - December, 2012

Change the Weather History Date:

Tuesday, December 11, 2012

  Actual Average (KYKM) Record (KYKM)
Temperature  
Mean Temperature 38 °F -  
Max Temperature 43 °F 39 °F 59 °F (2004)
Min Temperature 32 °F 22 °F -3 °F (2009)
Degree Days  
Heating Degree Days 28    
Moisture  
Dew Point 31 °F    
Average Humidity 76    
Maximum Humidity 87    
Minimum Humidity 62    
Precipitation  
Precipitation 0.05 in - - ()
Sea Level Pressure  
Sea Level Pressure 29.65 in    
Wind  
Wind Speed 8 mph (North)    
Max Wind Speed 17 mph    
Max Gust Speed -    
Visibility 10 miles    
Events Rain    
Averages and records for this station are not official NWS values.
T = Trace of Precipitation, MM = Missing Value Source: NWS Daily Summary

Daily Weather History Graph

Daily Weather History Graph

Search for Another Location

Airport or City:

Astronomy

Dec. 11, 2012 Rise Set
Actual Time 7:38 AM PST 4:12 PM PST
Civil Twilight 7:03 AM PST 4:48 PM PST
Nautical Twilight 6:24 AM PST 5:26 PM PST
Astronomical Twilight 5:47 AM PST 6:03 PM PST
Moon 5:36 AM PST (12/11) 2:59 PM PST (12/11)
Length of Visible Light 9h 45m
Length of Day
8h 34m
Waning Crescent, 4% of the Moon is Illuminated
Dec 11
Waning Crescent
Dec 13
New
Dec 19
First Quarter
Dec 28
Full
Jan 4
Last Quarter

Hourly Weather History & Observations

Time (PST) Temp. Windchill Dew Point Humidity Pressure Visibility Wind Dir Wind Speed Gust Speed Precip Events Conditions
12:53 AM 39.9 °F 31.1 °F 28.9 °F 65% 29.99 in 10.0 mi NW 17.3 mph - N/A   Clear
1:53 AM 37.9 °F 29.6 °F 28.9 °F 70% 29.95 in 10.0 mi NNW 13.8 mph - N/A   Clear
2:53 AM 37.0 °F 29.8 °F 28.9 °F 73% 29.91 in 10.0 mi WNW 10.4 mph - N/A   Clear
3:53 AM 37.0 °F 28.9 °F 28.0 °F 70% 29.86 in 10.0 mi WNW 12.7 mph - N/A   Clear
4:53 AM 37.0 °F 29.3 °F 27.0 °F 67% 29.83 in 10.0 mi WNW 11.5 mph - N/A   Clear
5:53 AM 37.0 °F - 27.0 °F 67% 29.80 in 10.0 mi Calm Calm - N/A   Clear
6:53 AM 32.0 °F 28.7 °F 27.0 °F 82% 29.78 in 10.0 mi East 3.5 mph - N/A   Clear
7:53 AM 33.1 °F 28.7 °F 27.0 °F 78% 29.75 in 10.0 mi NE 4.6 mph - N/A   Clear
8:53 AM 34.0 °F 31.0 °F 28.0 °F 79% 29.73 in 10.0 mi NW 3.5 mph - N/A   Clear
9:53 AM 39.0 °F 35.7 °F 30.0 °F 70% 29.70 in 10.0 mi South 4.6 mph - N/A   Clear
10:53 AM 39.9 °F 35.1 °F 30.9 °F 70% 29.68 in 10.0 mi SSW 6.9 mph - N/A   Clear
11:53 AM 41.0 °F - 30.0 °F 65% 29.64 in 10.0 mi Calm Calm - N/A   Mostly Cloudy
12:53 PM 42.1 °F 40.2 °F 30.9 °F 65% 29.61 in 10.0 mi SE 3.5 mph - N/A   Overcast
1:53 PM 43.0 °F 41.3 °F 30.9 °F 62% 29.59 in 10.0 mi ENE 3.5 mph - N/A   Overcast
2:53 PM 42.1 °F - 30.9 °F 65% 29.57 in 10.0 mi Calm Calm - N/A   Partly Cloudy
3:53 PM 41.0 °F 37.1 °F 30.9 °F 67% 29.56 in 10.0 mi East 5.8 mph - N/A   Overcast
4:53 PM 39.0 °F 35.7 °F 30.0 °F 70% 29.55 in 10.0 mi East 4.6 mph - N/A   Scattered Clouds
5:53 PM 39.9 °F - 30.9 °F 70% 29.55 in 10.0 mi Calm Calm - 0.00 in Rain Light Rain
6:13 PM 39.2 °F 35.0 °F 32.0 °F 75% 29.52 in 10.0 mi NE 5.8 mph - 0.01 in Rain Light Rain
6:53 PM 39.0 °F 34.8 °F 33.1 °F 79% 29.57 in 10.0 mi NNE 5.8 mph - 0.02 in Rain Light Rain
7:18 PM 37.4 °F 32.1 °F 33.8 °F 87% 29.53 in 10.0 mi NNE 6.9 mph - 0.01 in Rain Light Rain
7:53 PM 37.9 °F 34.4 °F 33.1 °F 83% 29.57 in 10.0 mi NNE 4.6 mph - 0.02 in Rain Light Rain
8:20 PM 37.4 °F - 33.8 °F 87% 29.54 in 10.0 mi Calm Calm - 0.01 in Rain Light Rain
8:53 PM 37.0 °F 32.4 °F 33.1 °F 86% 29.57 in 10.0 mi NNE 5.8 mph - 0.01 in   Overcast
9:26 PM 37.4 °F - 33.8 °F 87% 29.54 in 10.0 mi Calm Calm - N/A   Overcast
9:53 PM 37.0 °F 32.4 °F 33.1 °F 86% 29.57 in 10.0 mi NW 5.8 mph - N/A   Overcast
10:16 PM 35.6 °F 29.9 °F 32.0 °F 87% 29.54 in 10.0 mi NNW 6.9 mph - N/A   Overcast
10:51 PM 37.4 °F - 32.0 °F 81% 29.56 in 10.0 mi Calm Calm - N/A   Overcast
10:53 PM 37.0 °F - 32.0 °F 82% 29.58 in 10.0 mi Calm Calm - N/A   Overcast
11:01 PM 37.4 °F - 32.0 °F 81% 29.56 in 10.0 mi Calm Calm - N/A   Overcast
11:53 PM 34.0 °F 28.8 °F 30.0 °F 85% 29.58 in 10.0 mi North 5.8 mph - N/A   Overcast